QPF
0.06 0.07 0.07 0.09 0.09 0.10 0.12 0.10 0.06 0.06 0.08 0.09 0.05 0.02 0.02 0.03 0.02 0.01 0.01 0.00 0.01 0.01 0.00 0.00 0.00 0.00 0.00 0.00 0.00 0.00 0.00 0.00 0.00 0.00 0.00 0.00 0.00 0.00 0.00 0.00 0.00 0.00 0.00 0.00
0.06 0.07 0.04 0.05 0.07 0.06 0.08 0.09 0.09 0.08 0.06 0.05 0.03 0.02 0.02 0.03 0.02 0.01 0.00 0.00 0.01 0.01 0.00 0.00 0.00 0.00 0.00 0.00 0.00 0.00 0.00 0.00 0.00 0.00 0.00 0.00 0.00 0.00 0.00 0.00 0.00 0.00 0.00 0.01
0.06 0.05 0.03 0.04 0.09 0.08 0.06 0.07 0.07 0.07 0.05 0.05 0.03 0.02 0.02 0.02 0.03 0.02 0.01 0.00 0.01 0.01 0.01 0.00 0.00 0.00 0.00 0.00 0.00 0.00 0.00 0.00 0.00 0.00 0.00 0.00 0.00 0.00 0.00 0.00 0.00 0.00 0.00 0.01
0.05 0.03 0.03 0.04 0.06 0.05 0.07 0.05 0.03 0.03 0.02 0.02 0.02 0.02 0.01 0.01 0.03 0.02 0.01 0.00 0.00 0.01 0.00 0.00 0.00 0.00 0.00 0.00 0.00 0.00 0.00 0.00 0.00 0.00 0.00 0.00 0.00 0.00 0.00 0.00 0.00 0.00 0.00 0.01
0.04 0.03 0.03 0.04 0.03 0.02 0.03 0.03 0.01 0.01 0.01 0.01 0.01 0.01 0.01 0.01 0.01 0.00 0.00 0.00 0.00 0.00 0.00 0.00 0.00 0.00 0.00 0.00 0.00 0.00 0.00 0.00 0.00 0.00 0.00 0.00 0.00 0.00 0.00 0.00 0.00 0.00 0.00 0.00
0.03 0.03 0.02 0.02 0.01 0.01 0.01 0.01 0.01 0.01 0.01 0.01 0.00 0.00 0.00 0.00 0.00 0.00 0.00 0.01 0.00 0.00 0.00 0.00 0.00 0.00 0.00 0.00 0.00 0.00 0.00 0.00 0.00 0.00 0.00 0.00 0.00 0.00 0.00 0.00 0.01 0.00 0.00 0.01
0.01 0.01 0.01 0.00 0.00 0.00 0.00 0.01 0.01 0.01 0.01 0.01 0.00 0.00 0.00 0.00 0.01 0.00 0.01 0.02 0.01 0.00 0.00 0.00 0.00 0.00 0.00 0.00 0.00 0.00 0.00 0.00 0.00 0.00 0.00 0.00 0.00 0.00 0.00 0.00 0.01 0.01 0.01 0.01
0.00 0.01 0.01 0.00 0.00 0.00 0.00 0.01 0.01 0.02 0.02 0.00 0.00 0.00 0.00 0.00 0.00 0.00 0.00 0.01 0.01 0.01 0.00 0.00 0.00 0.00 0.00 0.00 0.00 0.00 0.00 0.00 0.00 0.00 0.00 0.00 0.00 0.00 0.00 0.00 0.00 0.00 0.01 0.02
0.01 0.01 0.01 0.00 0.00 0.00 0.00 0.01 0.01 0.01 0.01 0.00 0.00 0.00 0.00 0.00 0.00 0.00 0.00 0.00 0.01 0.01 0.00 0.00 0.00 0.00 0.00 0.00 0.00 0.00 0.00 0.00 0.00 0.00 0.00 0.00 0.00 0.00 0.00 0.00 0.00 0.01 0.01 0.01
0.01 0.01 0.00 0.00 0.00 0.00 0.00 0.01 0.01 0.00 0.00 0.00 0.00 0.00 0.00 0.00 0.00 0.00 0.00 0.00 0.00 0.00 0.00 0.00 0.00 0.00 0.00 0.00 0.00 0.00 0.00 0.00 0.00 0.00 0.00 0.00 0.00 0.00 0.00 0.00 0.00 0.00 0.00 0.00
0.00 0.00 0.00 0.00 0.00 0.00 0.00 0.01 0.00 0.00 0.00 0.00 0.00 0.00 0.00 0.00 0.00 0.00 0.00 0.00 0.00 0.00 0.00 0.00 0.00 0.00 0.00 0.00 0.00 0.00 0.00 0.00 0.00 0.00 0.00 0.00 0.00 0.00 0.00 0.00 0.00 0.00 0.00 0.00
0.00 0.00 0.00 0.00 0.00 0.00 0.00 0.00 0.00 0.00 0.00 0.00 0.00 0.00 0.00 0.00 0.00 0.00 0.00 0.00 0.00 0.00 0.00 0.00 0.00 0.00 0.00 0.00 0.00 0.00 0.00 0.00 0.00 0.00 0.00 0.00 0.00 0.00 0.00 0.00 0.00 0.00 0.00 0.00
0.00 0.00 0.00 0.00 0.00 0.00 0.00 0.00 0.00 0.00 0.00 0.00 0.00 0.00 0.00 0.00 0.00 0.00 0.00 0.00 0.00 0.00 0.00 0.00 0.00 0.00 0.00 0.00 0.00 0.00 0.00 0.00 0.00 0.00 0.00 0.00 0.00 0.00 0.00 0.00 0.00 0.00 0.00 0.00
0.00 0.00 0.00 0.00 0.00 0.00 0.00 0.00 0.00 0.00 0.00 0.00 0.00 0.00 0.00 0.00 0.00 0.00 0.00 0.00 0.00 0.00 0.00 0.00 0.00 0.00 0.00 0.00 0.00 0.00 0.00 0.00 0.00 0.00 0.00 0.00 0.00 0.00 0.00 0.00 0.00 0.00 0.00 0.00
0.00 0.00 0.00 0.00 0.00 0.00 0.00 0.00 0.00 0.00 0.00 0.00 0.00 0.00 0.00 0.00 0.00 0.00 0.00 0.00 0.00 0.00 0.00 0.00 0.00 0.00 0.00 0.00 0.00 0.00 0.00 0.00 0.00 0.00 0.00 0.00 0.00 0.00 0.00 0.00 0.00 0.00 0.00 0.00
0.00 0.00 0.00 0.00 0.00 0.00 0.00 0.00 0.00 0.00 0.00 0.00 0.00 0.00 0.00 0.00 0.00 0.00 0.00 0.00 0.00 0.00 0.00 0.00 0.00 0.00 0.00 0.00 0.00 0.00 0.00 0.00 0.00 0.00 0.00 0.00 0.00 0.00 0.00 0.00 0.00 0.00 0.00 0.00
0.00 0.00 0.00 0.00 0.00 0.00 0.00 0.00 0.00 0.00 0.00 0.00 0.00 0.00 0.00 0.00 0.00 0.00 0.00 0.00 0.00 0.00 0.00 0.00 0.00 0.00 0.00 0.00 0.00 0.00 0.00 0.00 0.00 0.00 0.00 0.00 0.00 0.00 0.00 0.00 0.00 0.00 0.00 0.00
0.00 0.00 0.00 0.00 0.00 0.00 0.00 0.00 0.00 0.00 0.00 0.00 0.00 0.00 0.00 0.00 0.00 0.00 0.00 0.00 0.00 0.00 0.00 0.00 0.00 0.00 0.00 0.00 0.00 0.00 0.00 0.00 0.00 0.00 0.00 0.00 0.00 0.00 0.00 0.00 0.00 0.00 0.00 0.00
0.00 0.00 0.00 0.00 0.00 0.00 0.00 0.00 0.00 0.00 0.00 0.00 0.00 0.00 0.00 0.00 0.00 0.00 0.00 0.00 0.00 0.00 0.00 0.00 0.00 0.00 0.00 0.00 0.00 0.00 0.00 0.00 0.00 0.00 0.00 0.00 0.00 0.00 0.00 0.00 0.00 0.00 0.00 0.00
0.00 0.00 0.00 0.00 0.00 0.00 0.00 0.00 0.00 0.00 0.00 0.00 0.00 0.00 0.00 0.00 0.00 0.00 0.00 0.00 0.00 0.00 0.00 0.00 0.00 0.00 0.00 0.00 0.00 0.00 0.00 0.00 0.00 0.00 0.00 0.00 0.00 0.00 0.00 0.00 0.00 0.00 0.00 0.00
0.00 0.00 0.00 0.00 0.00 0.00 0.00 0.00 0.00 0.00 0.00 0.00 0.00 0.00 0.00 0.00 0.00 0.00 0.00 0.00 0.00 0.00 0.00 0.00 0.00 0.00 0.00 0.00 0.00 0.00 0.00 0.00 0.00 0.00 0.00 0.00 0.00 0.00 0.00 0.00 0.00 0.00 0.00 0.00
0.00 0.00 0.00 0.00 0.00 0.00 0.00 0.00 0.00 0.00 0.00 0.00 0.00 0.00 0.00 0.00 0.00 0.00 0.00 0.00 0.00 0.00 0.00 0.00 0.00 0.00 0.00 0.00 0.00 0.00 0.00 0.00 0.00 0.00 0.00 0.00 0.00 0.00 0.00 0.00 0.00 0.00 0.00 0.00
0.00 0.00 0.00 0.00 0.00 0.00 0.00 0.00 0.00 0.00 0.00 0.00 0.00 0.00 0.00 0.00 0.00 0.00 0.00 0.00 0.00 0.00 0.00 0.00 0.00 0.00 0.00 0.00 0.00 0.00 0.00 0.00 0.00 0.00 0.00 0.00 0.00 0.00 0.00 0.00 0.00 0.00 0.00 0.00
0.00 0.00 0.00 0.00 0.00 0.00 0.00 0.00 0.00 0.00 0.00 0.00 0.00 0.00 0.00 0.00 0.00 0.00 0.00 0.00 0.00 0.00 0.00 0.00 0.00 0.00 0.00 0.00 0.00 0.00 0.00 0.00 0.00 0.00 0.00 0.00 0.00 0.00 0.00 0.00 0.00 0.00 0.00 0.00
0.00 0.00 0.00 0.00 0.00 0.00 0.00 0.00 0.00 0.00 0.00 0.00 0.00 0.00 0.00 0.00 0.00 0.00 0.00 0.00 0.00 0.00 0.00 0.00 0.00 0.00 0.00 0.00 0.00 0.00 0.00 0.00 0.00 0.00 0.00 0.00 0.00 0.00 0.00 0.00 0.00 0.00 0.00 0.00
0.00 0.00 0.00 0.00 0.00 0.00 0.00 0.00 0.00 0.00 0.00 0.00 0.00 0.00 0.00 0.00 0.00 0.00 0.00 0.00 0.00 0.00 0.00 0.00 0.00 0.00 0.00 0.00 0.00 0.00 0.00 0.00 0.00 0.00 0.00 0.00 0.00 0.00 0.00 0.00 0.00 0.00 0.00 0.00
MSLP
1013.60 1014.64 1015.41 1015.90 1016.10 1016.08 1015.89 1015.59 1015.23 1014.82 1014.38 1013.90 1013.36 1012.78 1012.18 1011.59 1011.06 1010.63 1010.35 1010.22 1010.23 1010.36 1010.54 1010.74 1010.92 1011.05 1011.15 1011.22 1011.31 1011.45 1011.66 1011.95 1012.29 1012.66 1013.00 1013.26 1013.43 1013.47 1013.39 1013.24 1013.04 1012.85 1012.69 1012.59
1013.80 1014.67 1015.28 1015.62 1015.75 1015.71 1015.57 1015.37 1015.14 1014.87 1014.55 1014.14 1013.62 1013.01 1012.33 1011.63 1010.99 1010.47 1010.12 1009.96 1009.97 1010.12 1010.34 1010.58 1010.78 1010.92 1011.00 1011.04 1011.11 1011.22 1011.43 1011.75 1012.14 1012.57 1012.99 1013.33 1013.54 1013.62 1013.56 1013.40 1013.18 1012.96 1012.78 1012.67
1013.70 1014.34 1014.75 1014.96 1015.02 1015.00 1014.95 1014.91 1014.87 1014.80 1014.63 1014.34 1013.87 1013.25 1012.50 1011.71 1010.95 1010.33 1009.89 1009.68 1009.68 1009.84 1010.10 1010.37 1010.61 1010.76 1010.85 1010.88 1010.93 1011.03 1011.24 1011.56 1011.99 1012.46 1012.93 1013.32 1013.59 1013.70 1013.66 1013.50 1013.28 1013.05 1012.86 1012.75
1013.35 1013.74 1013.94 1014.02 1014.06 1014.11 1014.21 1014.39 1014.59 1014.76 1014.79 1014.64 1014.25 1013.62 1012.81 1011.90 1011.02 1010.26 1009.71 1009.42 1009.38 1009.53 1009.81 1010.12 1010.40 1010.59 1010.70 1010.75 1010.79 1010.89 1011.09 1011.41 1011.83 1012.32 1012.81 1013.24 1013.54 1013.68 1013.67 1013.54 1013.33 1013.11 1012.92 1012.81
1012.85 1012.99 1013.02 1013.02 1013.08 1013.25 1013.56 1014.00 1014.48 1014.91 1015.16 1015.16 1014.84 1014.20 1013.31 1012.27 1011.22 1010.30 1009.61 1009.20 1009.08 1009.21 1009.49 1009.84 1010.16 1010.41 1010.56 1010.64 1010.69 1010.79 1010.97 1011.27 1011.67 1012.15 1012.64 1013.07 1013.39 1013.56 1013.59 1013.48 1013.31 1013.11 1012.95 1012.84
1012.33 1012.27 1012.18 1012.15 1012.28 1012.61 1013.16 1013.87 1014.64 1015.33 1015.79 1015.92 1015.64 1014.97 1013.98 1012.78 1011.55 1010.44 1009.57 1009.03 1008.81 1008.88 1009.16 1009.53 1009.90 1010.21 1010.41 1010.53 1010.61 1010.70 1010.87 1011.13 1011.50 1011.94 1012.40 1012.82 1013.15 1013.34 1013.40 1013.35 1013.21 1013.06 1012.92 1012.84
1011.93 1011.72 1011.56 1011.56 1011.80 1012.32 1013.10 1014.08 1015.10 1016.00 1016.62 1016.84 1016.58 1015.85 1014.73 1013.37 1011.94 1010.63 1009.58 1008.88 1008.55 1008.56 1008.81 1009.20 1009.61 1009.97 1010.24 1010.40 1010.51 1010.61 1010.75 1010.97 1011.29 1011.68 1012.09 1012.49 1012.82 1013.04 1013.14 1013.13 1013.05 1012.95 1012.86 1012.80
1011.73 1011.45 1011.29 1011.35 1011.71 1012.40 1013.38 1014.55 1015.75 1016.79 1017.50 1017.75 1017.46 1016.64 1015.40 1013.88 1012.28 1010.79 1009.58 1008.74 1008.30 1008.23 1008.45 1008.84 1009.29 1009.69 1010.01 1010.22 1010.36 1010.46 1010.59 1010.77 1011.04 1011.37 1011.75 1012.12 1012.44 1012.68 1012.82 1012.87 1012.85 1012.80 1012.75 1012.73
1011.78 1011.49 1011.37 1011.50 1011.97 1012.78 1013.88 1015.15 1016.43 1017.51 1018.22 1018.43 1018.08 1017.17 1015.82 1014.17 1012.45 1010.84 1009.50 1008.56 1008.03 1007.90 1008.08 1008.47 1008.92 1009.36 1009.71 1009.96 1010.12 1010.24 1010.35 1010.51 1010.74 1011.03 1011.37 1011.72 1012.04 1012.29 1012.47 1012.58 1012.62 1012.63 1012.62 1012.63
1012.06 1011.82 1011.75 1011.96 1012.48 1013.33 1014.45 1015.71 1016.94 1017.95 1018.58 1018.70 1018.25 1017.27 1015.85 1014.14 1012.36 1010.70 1009.32 1008.32 1007.75 1007.57 1007.72 1008.08 1008.53 1008.97 1009.33 1009.60 1009.78 1009.90 1010.02 1010.16 1010.37 1010.64 1010.96 1011.31 1011.64 1011.92 1012.14 1012.29 1012.38 1012.43 1012.47 1012.51
1012.52 1012.35 1012.34 1012.58 1013.10 1013.90 1014.93 1016.05 1017.13 1017.97 1018.44 1018.43 1017.88 1016.85 1015.41 1013.73 1011.99 1010.37 1009.02 1008.04 1007.46 1007.27 1007.37 1007.69 1008.10 1008.51 1008.86 1009.12 1009.31 1009.44 1009.56 1009.72 1009.94 1010.21 1010.54 1010.90 1011.25 1011.56 1011.81 1012.01 1012.14 1012.23 1012.30 1012.36
1013.05 1012.96 1013.01 1013.24 1013.70 1014.37 1015.21 1016.11 1016.93 1017.53 1017.80 1017.63 1017.01 1015.96 1014.58 1013.00 1011.38 1009.89 1008.66 1007.75 1007.20 1006.99 1007.06 1007.31 1007.64 1007.99 1008.29 1008.52 1008.70 1008.84 1008.99 1009.17 1009.42 1009.73 1010.09 1010.48 1010.86 1011.21 1011.50 1011.72 1011.89 1012.01 1012.10 1012.18
1013.58 1013.57 1013.63 1013.83 1014.17 1014.66 1015.25 1015.87 1016.40 1016.73 1016.77 1016.47 1015.79 1014.77 1013.50 1012.09 1010.67 1009.37 1008.29 1007.49 1007.00 1006.78 1006.79 1006.95 1007.18 1007.42 1007.64 1007.82 1007.97 1008.11 1008.29 1008.52 1008.81 1009.18 1009.59 1010.02 1010.45 1010.83 1011.16 1011.42 1011.61 1011.75 1011.85 1011.94
1014.04 1014.09 1014.16 1014.29 1014.50 1014.79 1015.12 1015.44 1015.67 1015.73 1015.57 1015.14 1014.44 1013.50 1012.38 1011.18 1009.99 1008.91 1008.01 1007.33 1006.89 1006.65 1006.58 1006.62 1006.72 1006.83 1006.93 1007.03 1007.14 1007.28 1007.48 1007.75 1008.11 1008.54 1009.01 1009.50 1009.98 1010.41 1010.77 1011.05 1011.27 1011.42 1011.54 1011.64
1014.42 1014.51 1014.58 1014.64 1014.72 1014.82 1014.91 1014.96 1014.92 1014.76 1014.43 1013.92 1013.23 1012.38 1011.43 1010.44 1009.48 1008.62 1007.88 1007.31 1006.89 1006.61 1006.44 1006.34 1006.27 1006.23 1006.21 1006.21 1006.26 1006.38 1006.60 1006.91 1007.32 1007.81 1008.35 1008.89 1009.42 1009.89 1010.28 1010.60 1010.84 1011.02 1011.16 1011.28
1014.75 1014.85 1014.91 1014.92 1014.90 1014.84 1014.74 1014.59 1014.35 1014.02 1013.57 1013.02 1012.35 1011.61 1010.82 1010.02 1009.26 1008.57 1007.96 1007.45 1007.03 1006.68 1006.38 1006.12 1005.89 1005.68 1005.51 1005.41 1005.38 1005.47 1005.69 1006.02 1006.47 1007.00 1007.58 1008.18 1008.74 1009.25 1009.68 1010.03 1010.30 1010.51 1010.68 1010.83
1015.07 1015.17 1015.22 1015.19 1015.10 1014.94 1014.72 1014.43 1014.07 1013.64 1013.13 1012.56 1011.94 1011.29 1010.63 1009.98 1009.36 1008.78 1008.25 1007.76 1007.29 1006.85 1006.42 1006.00 1005.59 1005.22 1004.92 1004.70 1004.59 1004.63 1004.81 1005.14 1005.60 1006.14 1006.74 1007.36 1007.95 1008.48 1008.95 1009.33 1009.65 1009.90 1010.12 1010.31
1015.43 1015.52 1015.54 1015.49 1015.37 1015.17 1014.89 1014.55 1014.14 1013.67 1013.15 1012.60 1012.02 1011.44 1010.87 1010.31 1009.77 1009.25 1008.73 1008.21 1007.68 1007.13 1006.57 1006.00 1005.44 1004.93 1004.49 1004.16 1003.97 1003.93 1004.06 1004.34 1004.76 1005.27 1005.85 1006.45 1007.04 1007.60 1008.09 1008.52 1008.88 1009.20 1009.47 1009.72
1015.88 1015.92 1015.91 1015.85 1015.71 1015.51 1015.23 1014.89 1014.48 1014.03 1013.54 1013.02 1012.50 1011.97 1011.44 1010.93 1010.41 1009.89 1009.34 1008.77 1008.16 1007.52 1006.84 1006.15 1005.48 1004.85 1004.30 1003.87 1003.58 1003.45 1003.49 1003.68 1004.01 1004.45 1004.96 1005.51 1006.07 1006.62 1007.13 1007.60 1008.03 1008.41 1008.76 1009.07
1016.40 1016.37 1016.31 1016.22 1016.08 1015.89 1015.65 1015.34 1014.99 1014.59 1014.15 1013.68 1013.20 1012.71 1012.20 1011.69 1011.17 1010.62 1010.03 1009.40 1008.72 1008.00 1007.24 1006.47 1005.71 1005.01 1004.37 1003.85 1003.47 1003.22 1003.14 1003.21 1003.40 1003.71 1004.11 1004.57 1005.07 1005.59 1006.10 1006.61 1007.10 1007.56 1007.98 1008.38
1016.94 1016.82 1016.69 1016.55 1016.41 1016.23 1016.03 1015.78 1015.49 1015.16 1014.79 1014.39 1013.95 1013.49 1013.00 1012.48 1011.93 1011.34 1010.71 1010.04 1009.31 1008.55 1007.75 1006.94 1006.15 1005.40 1004.71 1004.11 1003.62 1003.26 1003.03 1002.93 1002.96 1003.10 1003.34 1003.67 1004.08 1004.54 1005.05 1005.58 1006.12 1006.66 1007.17 1007.65
1017.43 1017.19 1016.97 1016.78 1016.60 1016.44 1016.27 1016.08 1015.87 1015.61 1015.32 1014.98 1014.59 1014.16 1013.69 1013.17 1012.60 1011.99 1011.34 1010.64 1009.90 1009.12 1008.33 1007.53 1006.73 1005.97 1005.25 1004.59 1004.01 1003.52 1003.12 1002.84 1002.67 1002.61 1002.67 1002.85 1003.13 1003.52 1003.99 1004.53 1005.12 1005.73 1006.33 1006.89
1017.79 1017.42 1017.10 1016.83 1016.62 1016.44 1016.30 1016.16 1016.02 1015.84 1015.63 1015.36 1015.03 1014.64 1014.19 1013.68 1013.11 1012.50 1011.84 1011.15 1010.42 1009.68 1008.91 1008.15 1007.38 1006.63 1005.89 1005.19 1004.52 1003.91 1003.36 1002.89 1002.51 1002.24 1002.11 1002.11 1002.25 1002.55 1002.97 1003.51 1004.13 1004.79 1005.46 1006.11
1017.95 1017.47 1017.05 1016.71 1016.45 1016.26 1016.12 1016.03 1015.94 1015.83 1015.68 1015.48 1015.22 1014.87 1014.46 1013.97 1013.43 1012.83 1012.19 1011.52 1010.83 1010.13 1009.42 1008.71 1007.99 1007.27 1006.54 1005.80 1005.07 1004.34 1003.65 1003.00 1002.43 1001.96 1001.63 1001.46 1001.46 1001.64 1002.01 1002.52 1003.15 1003.86 1004.60 1005.32
1017.90 1017.33 1016.84 1016.44 1016.13 1015.92 1015.79 1015.72 1015.67 1015.62 1015.53 1015.39 1015.18 1014.88 1014.51 1014.06 1013.53 1012.96 1012.35 1011.72 1011.08 1010.43 1009.78 1009.13 1008.46 1007.77 1007.06 1006.31 1005.53 1004.72 1003.90 1003.11 1002.37 1001.73 1001.22 1000.89 1000.75 1000.83 1001.12 1001.59 1002.22 1002.95 1003.74 1004.52
1017.66 1017.06 1016.53 1016.09 1015.77 1015.54 1015.41 1015.35 1015.32 1015.30 1015.25 1015.15 1014.98 1014.72 1014.38 1013.95 1013.46 1012.91 1012.33 1011.73 1011.12 1010.52 1009.92 1009.32 1008.70 1008.06 1007.37 1006.62 1005.82 1004.96 1004.06 1003.16 1002.30 1001.51 1000.86 1000.39 1000.12 1000.10 1000.30 1000.73 1001.33 1002.07 1002.88 1003.72
Thickness
5713 5701 5695 5703 5711 5712 5711 5707 5707 5718 5734 5731 5728 5733 5744 5750 5749 5746 5743 5743 5743 5745 5749 5749 5748 5745 5741 5738 5735 5731 5727 5724 5720 5715 5709 5705 5701 5699 5697 5695 5692 5690 5687 5684
5701 5697 5712 5719 5718 5716 5711 5707 5708 5721 5734 5731 5727 5732 5745 5750 5750 5751 5749 5746 5745 5744 5744 5744 5744 5742 5740 5736 5734 5730 5727 5723 5719 5715 5710 5705 5701 5697 5695 5692 5690 5687 5685 5682
5700 5709 5722 5719 5715 5712 5711 5710 5713 5717 5727 5731 5727 5724 5737 5749 5754 5754 5755 5754 5752 5748 5745 5743 5741 5740 5738 5736 5734 5732 5727 5723 5719 5715 5710 5705 5699 5695 5692 5689 5686 5685 5683 5680
5709 5721 5723 5719 5717 5719 5709 5727 5727 5723 5712 5707 5720 5701 5725 5739 5743 5748 5750 5750 5750 5751 5748 5744 5742 5739 5738 5737 5735 5732 5727 5723 5719 5714 5709 5703 5696 5691 5689 5687 5684 5683 5681 5679
5711 5723 5723 5719 5726 5731 5725 5736 5730 5725 5714 5706 5714 5704 5713 5733 5734 5741 5747 5750 5751 5751 5749 5746 5744 5742 5740 5738 5735 5731 5727 5722 5718 5714 5709 5703 5697 5693 5690 5687 5684 5681 5680 5677
5724 5735 5734 5732 5741 5742 5739 5729 5722 5711 5703 5692 5710 5704 5707 5722 5735 5743 5748 5750 5750 5750 5749 5747 5745 5742 5739 5737 5734 5730 5726 5721 5718 5714 5709 5703 5698 5693 5689 5686 5682 5680 5677 5676
5718 5729 5740 5744 5733 5736 5729 5705 5685 5683 5678 5687 5711 5707 5710 5736 5747 5749 5749 5749 5750 5749 5747 5744 5741 5738 5736 5735 5733 5729 5725 5721 5717 5713 5708 5704 5699 5695 5690 5686 5682 5679 5676 5674
5704 5706 5733 5742 5735 5727 5724 5709 5685 5676 5675 5684 5703 5703 5718 5744 5751 5754 5754 5752 5750 5747 5746 5745 5743 5740 5738 5736 5733 5729 5725 5721 5717 5713 5709 5705 5701 5696 5691 5688 5684 5680 5677 5676
5707 5711 5740 5748 5750 5740 5723 5712 5711 5691 5688 5680 5689 5708 5728 5744 5745 5746 5747 5747 5746 5746 5746 5745 5743 5741 5739 5736 5733 5730 5726 5721 5717 5713 5709 5705 5701 5697 5693 5689 5686 5683 5680 5678
5727 5716 5733 5747 5748 5744 5736 5722 5700 5690 5677 5670 5682 5695 5703 5726 5733 5740 5742 5743 5744 5746 5746 5745 5743 5742 5740 5738 5735 5731 5727 5723 5719 5714 5710 5707 5702 5698 5694 5690 5687 5684 5682 5679
5735 5716 5721 5732 5729 5726 5728 5721 5702 5685 5681 5670 5670 5687 5725 5729 5736 5738 5741 5744 5745 5745 5746 5745 5744 5743 5740 5737 5734 5730 5727 5723 5719 5715 5711 5707 5703 5699 5695 5691 5688 5686 5683 5680
5732 5712 5706 5719 5736 5744 5735 5726 5707 5689 5685 5678 5671 5687 5736 5738 5741 5743 5743 5746 5748 5748 5747 5746 5744 5741 5738 5735 5733 5730 5726 5723 5720 5716 5712 5708 5704 5700 5696 5692 5689 5687 5684 5682
5732 5711 5693 5697 5710 5727 5729 5730 5719 5702 5687 5677 5672 5692 5735 5736 5739 5742 5743 5744 5745 5745 5744 5742 5740 5738 5737 5735 5732 5730 5727 5724 5720 5716 5712 5707 5703 5700 5696 5693 5690 5688 5685 5682
5735 5711 5698 5692 5699 5712 5716 5723 5723 5706 5686 5684 5689 5700 5720 5727 5731 5736 5738 5740 5741 5741 5741 5739 5737 5736 5736 5735 5732 5730 5727 5724 5720 5716 5711 5707 5704 5701 5697 5694 5691 5688 5686 5683
5728 5711 5714 5714 5719 5721 5719 5719 5720 5712 5703 5693 5700 5705 5714 5723 5728 5733 5736 5737 5737 5737 5736 5736 5735 5734 5733 5732 5731 5729 5726 5723 5720 5715 5711 5708 5705 5701 5698 5694 5691 5689 5686 5684
5719 5711 5710 5709 5718 5717 5714 5717 5718 5716 5713 5707 5706 5707 5721 5725 5728 5728 5729 5730 5730 5731 5733 5734 5734 5733 5732 5731 5730 5728 5726 5723 5720 5715 5712 5709 5705 5701 5697 5694 5691 5688 5685 5683
5708 5705 5698 5691 5702 5707 5697 5710 5711 5707 5708 5706 5697 5704 5716 5718 5720 5720 5722 5723 5724 5727 5729 5730 5732 5732 5732 5732 5731 5728 5727 5723 5718 5715 5712 5708 5704 5701 5697 5695 5691 5687 5685 5682
5707 5699 5687 5684 5691 5684 5697 5716 5714 5705 5701 5703 5702 5705 5709 5713 5717 5719 5720 5718 5720 5723 5725 5727 5729 5730 5732 5733 5731 5729 5725 5720 5717 5713 5710 5707 5704 5700 5697 5693 5690 5687 5684 5681
5711 5699 5684 5674 5675 5681 5697 5709 5708 5700 5689 5694 5695 5699 5704 5710 5710 5709 5714 5716 5716 5720 5722 5725 5727 5728 5729 5729 5729 5725 5721 5718 5714 5712 5709 5707 5704 5700 5695 5692 5689 5686 5683 5680
5705 5697 5682 5671 5672 5667 5681 5702 5711 5700 5675 5686 5688 5689 5692 5695 5683 5688 5704 5708 5711 5714 5717 5719 5722 5723 5722 5723 5723 5719 5717 5714 5712 5712 5710 5707 5704 5700 5696 5692 5689 5686 5683 5680
5686 5680 5672 5666 5663 5667 5682 5694 5697 5668 5661 5677 5679 5680 5680 5676 5676 5685 5695 5699 5701 5704 5708 5711 5712 5712 5714 5716 5715 5712 5711 5711 5713 5712 5708 5705 5702 5699 5696 5692 5688 5684 5681 5678
5673 5667 5661 5655 5651 5656 5676 5679 5666 5661 5667 5668 5670 5671 5670 5671 5675 5678 5682 5685 5689 5692 5695 5697 5699 5701 5704 5706 5705 5704 5705 5709 5709 5706 5704 5701 5699 5697 5694 5688 5685 5682 5678 5674
5666 5664 5658 5656 5653 5660 5665 5663 5663 5661 5658 5659 5659 5660 5661 5661 5662 5665 5668 5670 5674 5677 5680 5683 5685 5689 5693 5694 5695 5695 5699 5701 5700 5699 5698 5697 5695 5692 5690 5686 5681 5677 5674 5671
5659 5661 5654 5649 5652 5653 5654 5654 5653 5652 5649 5649 5649 5649 5649 5648 5649 5651 5653 5655 5658 5662 5665 5668 5671 5674 5678 5682 5685 5688 5691 5692 5692 5691 5691 5690 5688 5686 5684 5682 5679 5675 5672 5668
5649 5649 5642 5637 5640 5642 5642 5640 5640 5640 5639 5638 5638 5637 5636 5635 5635 5636 5638 5640 5643 5646 5649 5652 5655 5659 5664 5669 5673 5677 5680 5682 5682 5683 5684 5683 5682 5680 5677 5675 5673 5672 5671 5670
5639 5638 5631 5628 5632 5626 5626 5629 5629 5626 5625 5625 5624 5623 5623 5621 5620 5622 5623 5625 5627 5630 5633 5636 5640 5644 5650 5655 5661 5665 5668 5670 5672 5673 5674 5674 5673 5672 5669 5665 5661 5662 5663 5664